User: anonymous   Login
Location: Unspecified
(0.0000°N, 0.0000°E)
Time: 22:16:25
(UTC+01:00)
Language:

NOAA 12 - Orbit

View from above orbital plane
View from above orbital plane
View from above satellite
View from above satellite

Ground track
Ground track

The orbit data is extracted from the following two-line orbital elements,

1 21263U 91032A   17023.94944185 -.00000000 +00000-0 +18141-4 0  9996
2 21263 098.5770 051.1567 0013469 347.7420 012.3430 14.25832914335910
Epoch (UTC): 23 January 2017 22:47:11
Eccentricity: 0.0013469
inclination: 98.5770°
perigee height: 796 km
apogee height: 815 km
right ascension of ascending node: 51.1567°
argument of perigee: 347.7420°
revolutions per day: 14.25832914
mean anomaly at epoch: 12.3430°
orbit number at epoch: 33591

The dashed part of the orbit path shows where the satellite is in the earth's shadow,  

DLR